Location: Paris
(48.6709°N, 2.3750°E)
Time: 12:39:01
(UTC+02:00)

Gurwin Techsat 1B - Pass Details

Date: 28 June 2022
Orbit: 812 x 813 km, 98.8° (Epoch: 07 August)

Event Time Altitude Azimuth Distance (km) Brightness Sun altitude
Rises 03:28:19 0° 24° (NNE) 3,347 13.8 -15.0°
Reaches altitude 10° 03:31:05 10° 37° (NE) 2,410 12.4 -14.8°
Maximum altitude 03:35:28 26° 93° (E) 1,570 10.3 -14.5°
Drops below altitude 10° 03:39:49 10° 149° (SSE) 2,395 10.7 -14.2°
Enters shadow 03:40:51 - 155° (SSE) 2,731 11.0 -14.2°
